TimeCST,TemperatureF,Dew PointF,Humidity,Sea Level PressureIn,VisibilityMPH,Wind Direction,Wind SpeedMPH,Gust SpeedMPH,PrecipitationIn,Events,Conditions,WindDirDegrees,DateUTC
12:56 AM,14.0,4.1,65,30.50,10.0,Calm,Calm,-,N/A,,Clear,0,2014-01-08 06:56:00
1:56 AM,13.1,5.0,70,30.50,10.0,Calm,Calm,-,N/A,,Clear,0,2014-01-08 07:56:00
2:56 AM,11.1,7.2,84,30.51,10.0,Calm,Calm,-,N/A,,Clear,0,2014-01-08 08:56:00
3:56 AM,12.0,6.1,77,30.51,10.0,Calm,Calm,-,N/A,,Clear,0,2014-01-08 09:56:00
4:56 AM,11.1,7.2,84,30.51,10.0,Calm,Calm,-,N/A,,Clear,0,2014-01-08 10:56:00
5:56 AM,10.0,7.2,88,30.51,10.0,Calm,Calm,-,N/A,,Clear,0,2014-01-08 11:56:00
6:56 AM,10.0,7.2,88,30.53,10.0,Calm,Calm,-,N/A,,Clear,0,2014-01-08 12:56:00
7:56 AM,15.1,10.0,80,30.56,10.0,Calm,Calm,-,N/A,,Clear,0,2014-01-08 13:56:00
8:56 AM,23.0,9.1,55,30.56,10.0,Calm,Calm,-,N/A,,Clear,0,2014-01-08 14:56:00
9:56 AM,29.1,7.2,40,30.58,10.0,Calm,Calm,-,N/A,,Clear,0,2014-01-08 15:56:00
10:56 AM,32.9,6.1,32,30.54,10.0,Calm,Calm,-,N/A,,Clear,0,2014-01-08 16:56:00
11:56 AM,37.9,6.1,27,30.50,10.0,Calm,Calm,-,N/A,,Clear,0,2014-01-08 17:56:00
12:56 PM,39.9,6.1,25,30.46,10.0,SE,10.4,-,N/A,,Clear,130,2014-01-08 18:56:00
1:56 PM,41.0,6.1,24,30.45,10.0,Variable,3.5,-,N/A,,Clear,0,2014-01-08 19:56:00
2:56 PM,41.9,6.1,23,30.43,10.0,Variable,5.8,-,N/A,,Clear,0,2014-01-08 20:56:00
3:56 PM,39.9,6.1,25,30.42,10.0,ESE,8.1,-,N/A,,Clear,120,2014-01-08 21:56:00
4:56 PM,36.9,8.1,30,30.44,10.0,Calm,Calm,-,N/A,,Clear,0,2014-01-08 22:56:00
5:56 PM,32.0,13.1,46,30.44,10.0,Calm,Calm,-,N/A,,Clear,0,2014-01-08 23:56:00
6:56 PM,30.0,13.1,49,30.44,10.0,Calm,Calm,-,N/A,,Clear,0,2014-01-09 00:56:00
7:56 PM,34.0,6.1,31,30.43,10.0,SE,4.6,-,N/A,,Clear,130,2014-01-09 01:56:00
8:56 PM,34.0,6.1,31,30.46,10.0,Calm,Calm,-,N/A,,Clear,0,2014-01-09 02:56:00
9:56 PM,32.0,11.1,42,30.46,10.0,Calm,Calm,-,N/A,,Clear,0,2014-01-09 03:56:00
10:56 PM,30.0,19.0,64,30.45,10.0,Calm,Calm,-,N/A,,Clear,0,2014-01-09 04:56:00
11:56 PM,28.0,18.1,66,30.44,10.0,Calm,Calm,-,N/A,,Clear,0,2014-01-09 05:56:00